Погода Правая Хетта

Погода Правая Хетта : погода сейчас, прогноз погоды и архив. Всё, что Вы хотите узнать о погоде Правая Хетта!

Хотите узнать прогноз погоды Правая Хетта? Тогда Вам сюда: Погода Правая Хетта

Поиск расширенной информации на нашем сайте:

Другие новости

Новости СМИ2

Главная страница сайта

Новости сайта

02.10.2013

Напоминаем, что на нашем новом сайте вы можете получить высокодетализированные прогнозы погоды по пунктам России, СНГ и мира (включающие важные для авиации метеовеличины, такие как направление и скорость ветра, видимость, явления погоды, количество и форма облачности, нижняя и верхняя граница облачности), а также ознакомиться с разнообразными материалами по авиационной метеорологии и подборкой полезных ссылок на эту тему.

Сайт Метеоцентр.Азия посвящён разработке технологий оптимизации авиаметеорологического обслуживания, включая проектирование и перспективное создание нескольких автоматизированных авиаметеорологических систем:
- система выпуска высокодетальных прогностических карт явлений погоды для нижнего воздушного пространства по России и ближнему зарубежью;
- система верификации прогнозов TAF (выпускаемых синоптиками официальных АМСГ РФ и ближнего зарубежья) и AUTOTAF (выпускаемых сайтом Метеоцентр.Азия) - выявление ошибок, онлайн-сопоставление с фактической погодой METAR, автоматическое внесение коррективов в прогнозы при резком отклонении фактической погоды от прогноза, подсчёт оправдываемости прогнозов по элементам и в целом;
- система обработки, анализа и отображения авиаметеорологической информации для применения провайдерами метеорологической информации.

Рекомендуем: Сонник видеть себя беременной к чему снится во сне сонник видеть себя беременной во сне.

Погода Правая Хетта - сегодня

Время (UTC), дата Ветер
(°,м/с) 
Видим.   Явления Облачность Т
(°С)
Тd
(°С)
f(%) Тe
(°С)
Pmin
(гПа)
dP
(гПа)
Po
(мм)
O2
(г/м3)
Тmin Tmax R s Состояние
почвы
03 25.02.17 тихо ()   20000 м  {снег}  ясно 
-32.1 -36.3 66 -32  1029.7  0.6  767  352  -33.6    0.0  55  равномерный
сухой снег
100% 
06 25.02.17 080 (В) 20000 м  {снег}  ясно 
-23.5 -26.9 74 -24  1029.6  0.2  767  340           
09 25.02.17 120 (ЮВ) 20000 м    ясно 
-18.6 -24 62 -21  1029.4  0.1  767  333           
12 25.02.17 080 (В) 20000 м    ясно 
-20.6 -24.9 68 -23  1028.8  -0.7  766  336           
15 25.02.17 100 (В) 20000 м    ясно 
-25 -28.3 74 -28  1028  -0.9  766  341    -18       
18 25.02.17 120 (ЮВ) 20000 м    ясно 
-25.7 -29.4 71 -31  1027.4  -0.6  765  342           
21 25.02.17 110 (В) 20000 м    ясно 
-25.2 -29.1 70 -30  1026.7  -0.6  765  341           
00 26.02.17 120 (ЮВ) 20000 м    ясно 
-24.5 -28.5 69 -31  1025.7  -1  764  340           
03 26.02.17 120 (ЮВ) 20000 м    3/0 верхняя 
[Ci fib]
-22.9 -26.6 72 -30  1024.6  -1  763  337  -26      55  равномерный
сухой снег
100% 
06 26.02.17 120 (ЮВ) 20000 м    10/0 верхняя 
[Cs]
-19.8 -23.2 74 -26  1023.7  -0.8  762  333           
09 26.02.17 120 (ЮВ) 5{10}  20000 м  позёмок  10/0 верхняя 
[Cs]
-17 -21.8 66 -23  1021.9  1.8  761  329           
12 26.02.17 120 (ЮВ) 7-11{11}  20000 м  позёмок  10/0 верхняя 
[Cs]
-17.6 -22.2 67 -25  1019.5  -2.4  763  330           
15 26.02.17 120 (ЮВ) 8-12{13}  20000 м  позёмок  10/0 средняя 
[Ac As]
-17 -21.7 67 -25  1016.1  -3.3  757  327        469  неравномерный
мокрый или
старый снег
100% 
18 26.02.17 130 (ЮВ) 10-15{15}  4000 м  слаб. снег  10/0 средняя 
[As op]
-14.9 -19.5 68 -23  1011.7  -4.3  754  323           
21 26.02.17 130 (ЮВ) 12-18{18}  1000 м  снег  ?/?  
-13.1 -15.5 82 -22  1006.8  -4.9  750  319           
00 27.02.17 150 (ЮВ) 9-14{18}  1000 м  снег  ?/?  
-11.5 -13.9 82 -19  1004.8  -1.9  749  316           
03 27.02.17 130 (ЮВ) 6-12{14}  10 км  позёмок{ливн. осадки}  10/10 300 м кучево-дожд. 
[Cb cap]
-6.8 -8.4 88 -12  998.8  -0.7  748  310  -13    52  неравномерный
сухой снег
100% 
06 27.02.17 160 (Ю) 5-10{13}  1000 м  снег  10/10 1200 м 
[Sc]
-8.1 -10.4 83 -12  1002.8  -0.4  747  311           
09 27.02.17 150 (ЮВ) 3{12}  10 км    10/5 600 м кучево-дожд., средняя 
[Cb cap|As op]
-2.7 -6.3 76 -5  999.6  0.1  748  305           
12 27.02.17 120 (ЮВ) 4000 м  слаб. ливневой снег  10/10 330 м кучево-дожд. 
[Cb cap]
-4.5 -5.8 91 -7  999.8  -2.1  745  306           
15 27.02.17 250 (З) 2000 м  ливневой снег  10/6 300 м кучево-дожд., средняя 
[Cb cap|Ac und]
-5.2 -5.5 98 -5  995.6  -2.4  745  307    -2.7     
18 27.02.17 330 (СЗ) 2{12}  1000 м  ливневой снег  10/10 330 м кучево-дожд. 
[Cb cap]
-3.8 -4.9 92 -5  992.1  -3.6  739  303           
21 27.02.17 260 (З) 2000 м  ливневой снег  10/6 300 м кучево-дожд., средняя 
[Cb cap|Ac und]
-8.1 -9 93 -10  993.3  0.1  744  310           
00 28.02.17 270 (З) 5{12}  2000 м  ливневой снег  10/10 330 м кучево-дожд. 
[Cb cap]
-9.2 -10.9 87 -14  994.8  741  310           
03 28.02.17 230 (ЮЗ) 6-10{12}  20000 м  позёмок{ливн. осадки}  10/3 600 м кучево-дожд., средняя 
[Cb cap|Ac As]
-11.1 -13.5 82 -17  998.9  4.1  744  314  -11.1    68  неравномерный
сухой снег
100% 
Время (UTC), дата Ветер
(°,м/с) 
Видим.   Явления Облачность Т
(°С)
Тd
(°С)
f(%) Тe
(°С)
Pmin
(гПа)
dP
(гПа)
Po
(мм)
O2
(г/м3)
Тmin Tmax R s Состояние
почвы

Для получения пояснительной информации подведите курсор к названию столбца.

ПОГОДА Правая Хетта - архив

Всё, что Вы хотите узнать о погоде Правая Хетта - удобно и подробно!

Выберите нужную дату (начиная с 1 января 2015* года) и нажмите кнопку "Найти".
Будут отображены архивные сводки погоды по пункту Правая Хетта, начиная с указанной даты.


Отображать данные в формате CSV (для использования в таблицах Excel)


Внимание! Наш архив погоды предназначен исключительно для личного некоммерческого использования в познавательных целях. Если Вам необходимы официальные справки о состоянии погоды (для производственных, юридических, коммерческих и т.п. целей), обращайтесь в органы Росгидромета.

*Примечание: данная дата относится к архиву по метеостанциям СССР (Россия, СНГ, Балтия).
Архив по метеостанциям Зарубежной Европы и Азии (кроме Китая) хранится 10 дней, по другим регионам земного шара (Китай, Африка, Америка, Австралия, Океания) - 1 день.

Правая Хетта - район местоположения метеостанции


Название, широта, долгота, высота метеостанции:
Правая Хетта 65.9°ш. 74.5°д. 54 м над ур. моря [Российская Федерация]

Дополнительная информация

В oтличие oт бoльшинства пoгoдных сайтoв мы публикуем пoдрoбную метеoинфoрмацию в детальнoм прoфессиoнальнoм фoрмате.

Характеристики температуры и влажнoсти вoздуха измеряются на высoте 2 м в тени вдали oт зданий и деревьев.
Скoрoсть ветра измеряется на высoте 10 м (на урoвне рoста челoвека скoрoсть ветра ниже в 1.5-2 раза). Если метеoстанция нахoдится в гoрoде или в лесу, тo скoрoсть ветра занижена на 2-4 м/с пo сравнению с oткрытым местoм. Скoрoсть ветра над акватoриями крупных рек и oзёр, а также на вершинах хoлмoв на 2-5 м/с выше, чем в oбычных услoвиях.
Атмoсфернoе давление в разных тoчках местнoсти мoжет значительнo oтличаться oт давления на метеoстанции, в зависимoсти oт услoвий рельефа (при пoдъёме на 10 м давление пoнижается примернo на 1 мм рт.ст.).